| time (UTC) | temp F | wind direction | speed MPH | gust MPH | rain 1hr in | rain 24hr in | rain mn in | humidity % | barometer mb |
| 20260506160150 | 64 | 194 | 5.0 | 17.0 | 0.00 | 0.00 | 0.00 | 75 | 1010.2 |
| 20260506150150 | 64 | 211 | 5.0 | 12.0 | 0.00 | 0.00 | 0.00 | 75 | 1010.2 |
| 20260506130150 | 63 | 198 | 3.0 | 10.0 | 0.00 | 0.00 | 0.00 | 79 | 1010.4 |
| 20260506120150 | 60 | 218 | 3.0 | 8.0 | 0.00 | 0.00 | 0.00 | 86 | 1010.9 |
| 20260506110150 | 58 | 218 | 3.0 | 7.0 | 0.00 | 0.00 | 0.00 | 90 | 1011.0 |
| 20260506100150 | 57 | 202 | 2.0 | 6.0 | 0.00 | 0.00 | 0.00 | 91 | 1010.8 |
| 20260506080150 | 58 | 204 | 3.0 | 7.0 | 0.00 | 0.00 | 0.00 | 87 | 1011.0 |
| 20260506070150 | 59 | 195 | 2.0 | 5.0 | 0.00 | 0.00 | 0.00 | 85 | 1011.1 |
| 20260506060152 | 60 | 195 | 2.0 | 7.0 | 0.00 | 0.00 | 0.00 | 82 | 1011.0 |
| 20260506050150 | 61 | 198 | 2.0 | 4.0 | 0.00 | 0.00 | 0.00 | 79 | 1011.2 |
| 20260506040149 | 63 | 199 | 2.0 | 8.0 | 0.00 | 0.00 | 0.00 | 74 | 1011.3 |
| 20260506030150 | 64 | 200 | 4.0 | 12.0 | 0.00 | 0.00 | 0.00 | 68 | 1011.2 |
| 20260506020150 | 64 | 201 | 4.0 | 9.0 | 0.00 | 0.00 | 0.00 | 68 | 1011.0 |
| 20260506010150 | 65 | 203 | 3.0 | 6.0 | 0.00 | 0.00 | 0.00 | 65 | 1010.3 |
| 20260506003149 | 65 | 222 | 6.0 | 17.0 | 0.00 | 0.00 | 0.00 | 63 | 1010.0 |
| 20260506000150 | 66 | 219 | 5.0 | 18.0 | 0.00 | 0.00 | 0.00 | 61 | 1009.6 |
| 20260505230150 | 69 | 221 | 4.0 | 15.0 | 0.00 | 0.00 | 0.00 | 58 | 1008.9 |
| 20260505220150 | 70 | 210 | 4.0 | 14.0 | 0.00 | 0.00 | 0.00 | 56 | 1008.9 |
| 20260505210150 | 72 | 210 | 5.0 | 10.0 | 0.00 | 0.00 | 0.00 | 53 | 1008.8 |
| 20260505200150 | 73 | 213 | 6.0 | 18.0 | 0.00 | 0.00 | 0.00 | 53 | 1009.0 |
| 20260505190152 | 75 | 198 | 5.0 | 18.0 | 0.00 | 0.00 | 0.00 | 50 | 1009.4 |
| 20260505180151 | 75 | 204 | 6.0 | 17.0 | 0.00 | 0.00 | 0.00 | 49 | 1009.5 |
| 20260505170150 | 74 | 208 | 5.0 | 14.0 | 0.00 | 0.00 | 0.00 | 52 | 1010.0 |